Location: St. Andrews
(45.0670°N, 67.0330°W)
Time: 15:55:35
(UTC-03:00)

Amateur Radio Satellites - All Passes

Search period start: 23 August 2014 15:25
Search period end: 24 August 2014 15:25
Location: St. Andrews, 45.0670°N, 67.0330°W

Satellite Date Start Highest point End Downlink Frequencies (MHz)
Time Altitude Azimuth
ITAMSAT 1 23 Aug 15:27:50 15:32:41 40° 262° (W) 15:37:33 435.822 SSB
Gurwin Techsat 1B 23 Aug 15:36:08 15:41:26 75° 257° (WSW) 15:46:47 435.225 FM
Uribyol 2 23 Aug 15:40:26 15:44:54 30° 265° (W) 15:49:24 436.500 FM
ISS 23 Aug 15:41:45 15:45:00 50° 337° (NNW) 15:48:15 145.800 FM
JAS-1B 23 Aug 15:43:13 15:52:54 56° 261° (W) 16:02:01 435.800 - 435.900 CW/SSB
Uosat F 23 Aug 15:50:43 15:54:50 26° 64° (ENE) 15:58:57 435.120 FM
Oscar 16 23 Aug 15:51:03 15:52:57 12° 273° (W) 15:54:51 437.025 USB, Beacon 2401.1428
AO-27 23 Aug 15:55:42 15:59:46 23° 267° (W) 16:03:52 436.795 MHz FM
AO-7 23 Aug 16:13:31 16:21:41 62° 65° (ENE) 16:29:51 29.400 - 29.500 MHz
UOSAT-12 23 Aug 16:13:53 16:18:24 41° 46° (NE) 16:22:50 437.025 FM, 437.400 FM
TMSAT-1 23 Aug 16:33:54 16:38:36 32° 265° (W) 16:43:19 436.925 FM
OPAL 23 Aug 16:42:23 16:45:04 14° 91° (E) 16:47:44 ?
RS-15 23 Aug 16:48:36 16:58:47 40° 32° (NNE) 17:09:13 29.354 - 29.394 USB, Beacon 29.352 USB
SO-50 23 Aug 16:51:50 16:53:43 12° 252° (WSW) 16:55:35 436.795 FM
MaSat-1 23 Aug 16:57:11 17:01:44 37° 307° (NW) 17:06:34 437.345 MHz
ISS 23 Aug 17:19:23 17:22:14 25° 357° (N) 17:25:05 145.800 FM
Hamsat 23 Aug 17:27:37 17:30:37 19° 64° (ENE) 17:33:39 145.90 MHz
Uosat F 23 Aug 17:28:39 17:33:24 43° 261° (W) 17:38:11 435.120 FM
JAS-1B 23 Aug 17:41:48 17:45:08 12° 280° (W) 17:48:25 435.800 - 435.900 CW/SSB
UOSAT-12 23 Aug 17:54:19 17:58:25 30° 245° (WSW) 18:02:28 437.025 FM, 437.400 FM
JAS-2 23 Aug 18:04:55 18:11:09 50° 70° (ENE) 18:16:43 435.800 - 435.900 CW/SSB, 435.910 FM
AO-7 23 Aug 18:07:36 18:14:54 33° 264° (W) 18:22:15 29.400 - 29.500 MHz
PCSat 23 Aug 18:18:14 18:21:34 17° 105° (ESE) 18:24:55 145.825 MHz
OPAL 23 Aug 18:19:18 18:24:33 81° 288° (WNW) 18:29:46 ?
ISS 23 Aug 18:56:26 18:59:34 36° 17° (NNE) 19:02:41 145.800 FM
RS-15 23 Aug 19:01:15 19:12:18 80° 239° (WSW) 19:23:47 29.354 - 29.394 USB, Beacon 29.352 USB
Hamsat 23 Aug 19:02:08 19:06:15 46° 262° (W) 19:10:26 145.90 MHz
HO-68 23 Aug 19:04:23 19:05:34 10° 42° (NE) 19:06:45 435.675 MHz FM
SO-67 23 Aug 19:05:47 19:08:41 26° 70° (ENE) 19:11:37 435.3500 MHz FM
Sapphire 23 Aug 19:28:41 19:33:58 59° 117° (ESE) 19:39:18 437.095 MHz 1200 baud AX-25 AFSK
STRAND 1 23 Aug 19:50:12 19:54:58 38° 98° (E) 19:59:42 ?
JAS-2 23 Aug 19:50:54 19:56:25 28° 265° (W) 20:01:27 435.800 - 435.900 CW/SSB, 435.910 FM
PCSat 23 Aug 19:58:55 20:04:19 77° 303° (WNW) 20:09:47 145.825 MHz
OPAL 23 Aug 20:00:08 20:02:37 14° 307° (NW) 20:05:07 ?
ISS 23 Aug 20:33:09 20:36:24 50° 216° (SW) 20:39:38 145.800 FM
SO-67 23 Aug 20:39:06 20:41:44 20° 266° (W) 20:44:24 435.3500 MHz FM
HO-68 23 Aug 20:44:49 20:51:31 46° 64° (ENE) 20:58:15 435.675 MHz FM
Sapphire 23 Aug 21:13:13 21:17:47 27° 317° (NW) 21:22:22 437.095 MHz 1200 baud AX-25 AFSK
RS-15 23 Aug 21:15:29 21:22:55 21° 260° (W) 21:30:33 29.354 - 29.394 USB, Beacon 29.352 USB
STRAND 1 23 Aug 21:29:40 21:34:02 29° 295° (WNW) 21:38:23 ?
AO-40 23 Aug 21:31:33 03:10:07 35° 183° (S) 08:32:46 Beacon 2401.320
PCSat 23 Aug 21:45:04 21:48:40 18° 324° (NW) 21:52:17 145.825 MHz
UKube-1 23 Aug 21:48:39 21:52:58 69° 73° (ENE) 21:57:19 145.840 MHz, 145.915 MHz
Oscar 11 23 Aug 22:03:10 22:07:24 56° 73° (ENE) 22:11:40 145.825 FM, Beacon 2401.500 USB
FUNcube-1 23 Aug 22:08:15 22:11:39 25° 66° (ENE) 22:15:05 145.950 - 145.970 MHz USB
Oscar 10/S400 23 Aug 22:19:22 22:42:43 55° 170° (S) 06:52:47 145.825 - 145.975 CW/USB, Beacon 145.810 USB
HO-68 23 Aug 22:32:44 22:39:18 39° 263° (W) 22:45:55 435.675 MHz FM
UKube-1 23 Aug 23:27:51 23:29:39 12° 270° (W) 23:31:27 145.840 MHz, 145.915 MHz
MaSat-1 23 Aug 23:36:33 23:39:54 18° 42° (NE) 23:43:02 437.345 MHz
Oscar 11 23 Aug 23:41:30 23:43:57 15° 270° (W) 23:46:25 145.825 FM, Beacon 2401.500 USB
FUNcube-1 23 Aug 23:44:15 23:47:57 31° 264° (W) 23:51:42 145.950 - 145.970 MHz USB
KITSAT 1 24 Aug 00:04:21 00:08:31 15° 99° (E) 00:12:41 435.175 FM
MaSat-1 24 Aug 01:12:49 01:17:44 80° 244° (WSW) 01:22:01 437.345 MHz
Saudisat 1A 24 Aug 01:14:18 01:18:32 48° 120° (ESE) 01:22:48 436.775 MHz
Oscar 19 24 Aug 01:45:52 01:48:21 13° 88° (E) 01:50:48 437.125 CW, 437.150 USB
KITSAT 1 24 Aug 01:54:28 02:02:30 73° 119° (ESE) 02:10:34 435.175 FM
Uribyol 2 24 Aug 02:13:51 02:15:06 11° 87° (E) 02:16:22 436.500 FM
Oscar 16 24 Aug 02:17:53 02:22:19 27° 94° (E) 02:26:42 437.025 USB, Beacon 2401.1428
AO-27 24 Aug 02:27:29 02:30:18 15° 89° (E) 02:33:07 436.795 MHz FM
Sapphire 24 Aug 02:32:12 02:35:42 17° 35° (NE) 02:39:11 437.095 MHz 1200 baud AX-25 AFSK
Saudisat 1A 24 Aug 02:54:38 02:58:21 26° 319° (NW) 03:02:05 436.775 MHz
PCSat 24 Aug 03:02:04 03:06:35 26° 43° (NE) 03:11:05 145.825 MHz
TMSAT-1 24 Aug 03:09:40 03:11:30 12° 87° (E) 03:13:21 436.925 FM
AO-Echo 24 Aug 03:11:58 03:16:23 38° 97° (E) 03:20:45 ?
Oscar 19 24 Aug 03:23:06 03:28:20 83° 286° (WNW) 03:33:32 437.125 CW, 437.150 USB
JAS-1B 24 Aug 03:28:52 03:35:57 46° 96° (E) 03:41:56 435.800 - 435.900 CW/SSB
ITAMSAT 1 24 Aug 03:38:12 03:43:21 62° 102° (ESE) 03:48:29 435.822 SSB
Uribyol 2 24 Aug 03:50:08 03:55:21 84° 104° (ESE) 04:00:33 436.500 FM
Gurwin Techsat 1B 24 Aug 03:50:31 03:55:28 38° 97° (E) 04:00:23 435.225 FM
KITSAT 1 24 Aug 03:51:20 03:58:36 35° 321° (NW) 04:05:54 435.175 FM
Oscar 16 24 Aug 03:56:55 04:01:47 41° 292° (WNW) 04:06:38 437.025 USB, Beacon 2401.1428
OPAL 24 Aug 03:58:24 04:02:48 32° 63° (ENE) 04:07:17 ?
AO-27 24 Aug 04:05:13 04:10:24 76° 287° (WNW) 04:15:34 436.795 MHz FM
Sapphire 24 Aug 04:14:39 04:20:06 73° 57° (ENE) 04:25:31 437.095 MHz 1200 baud AX-25 AFSK
AO-7 24 Aug 04:14:52 04:19:29 16° 87° (E) 04:24:04 29.400 - 29.500 MHz
PCSat 24 Aug 04:45:04 04:50:26 63° 243° (WSW) 04:55:46 145.825 MHz
TMSAT-1 24 Aug 04:46:51 04:52:11 87° 104° (ESE) 04:57:29 436.925 FM
AO-Echo 24 Aug 04:51:08 04:55:00 25° 295° (WNW) 04:58:50 ?
Oscar 19 24 Aug 05:04:32 05:06:52 13° 304° (NW) 05:09:11 437.125 CW, 437.150 USB
ITAMSAT 1 24 Aug 05:18:44 05:22:23 20° 300° (WNW) 05:26:02 435.822 SSB
JAS-1B 24 Aug 05:19:40 05:26:23 36° 300° (WNW) 05:32:09 435.800 - 435.900 CW/SSB
SO-50 24 Aug 05:27:27 05:30:29 18° 111° (ESE) 05:33:34 436.795 FM
Gurwin Techsat 1B 24 Aug 05:30:42 05:35:20 31° 295° (WNW) 05:39:57 435.225 FM
Uribyol 2 24 Aug 05:31:15 05:34:09 15° 303° (WNW) 05:37:03 436.500 FM
STRAND 1 24 Aug 05:33:49 05:34:50 11° 54° (NE) 05:35:51 ?
Uosat F 24 Aug 05:34:02 05:38:54 49° 100° (E) 05:43:44 435.120 FM
OPAL 24 Aug 05:37:01 05:41:37 36° 261° (W) 05:46:18 ?
AO-27 24 Aug 05:47:10 05:49:03 12° 305° (NW) 05:50:56 436.795 MHz FM
KITSAT 1 24 Aug 05:51:51 05:56:52 17° 350° (N) 06:01:53 435.175 FM
Sapphire 24 Aug 05:59:23 06:02:55 18° 255° (WSW) 06:06:27 437.095 MHz 1200 baud AX-25 AFSK
AO-7 24 Aug 06:05:17 06:13:38 76° 107° (ESE) 06:21:54 29.400 - 29.500 MHz
TMSAT-1 24 Aug 06:28:29 06:31:23 15° 303° (WNW) 06:34:17 436.925 FM
Hamsat 24 Aug 06:46:06 06:49:51 27° 94° (E) 06:53:33 145.90 MHz
JAS-2 24 Aug 06:56:45 07:01:20 31° 96° (E) 07:06:02 435.800 - 435.900 CW/SSB, 435.910 FM
SO-50 24 Aug 07:06:09 07:10:35 59° 309° (NW) 07:15:09 436.795 FM
STRAND 1 24 Aug 07:08:02 07:13:05 69° 73° (ENE) 07:18:10 ?
Uosat F 24 Aug 07:13:30 07:17:22 23° 298° (WNW) 07:21:14 435.120 FM
RS-15 24 Aug 07:26:19 07:27:43 10° 93° (E) 07:29:08 29.354 - 29.394 USB, Beacon 29.352 USB
KITSAT 1 24 Aug 07:50:11 07:55:56 20° 21° (NNE) 08:01:39 435.175 FM
AO-7 24 Aug 07:58:56 08:05:41 29° 307° (NW) 08:12:26 29.400 - 29.500 MHz
SO-67 24 Aug 08:00:25 08:03:15 23° 95° (E) 08:06:03 435.3500 MHz FM
Saudisat 1A 24 Aug 08:00:38 08:03:08 15° 32° (NNE) 08:05:38 436.775 MHz
UOSAT-12 24 Aug 08:06:35 08:11:04 52° 120° (ESE) 08:15:39 437.025 FM, 437.400 FM
Hamsat 24 Aug 08:21:57 08:25:48 31° 292° (WNW) 08:29:37 145.90 MHz
JAS-2 24 Aug 08:41:53 08:46:31 34° 294° (WNW) 08:51:14 435.800 - 435.900 CW/SSB, 435.910 FM
STRAND 1 24 Aug 08:49:42 08:52:47 16° 270° (W) 08:55:53 ?
SO-50 24 Aug 08:49:47 08:52:09 14° 331° (NNW) 08:54:32 436.795 FM
RS-15 24 Aug 09:26:43 09:37:22 56° 114° (ESE) 09:47:51 29.354 - 29.394 USB, Beacon 29.352 USB
SO-67 24 Aug 09:33:28 09:36:14 22° 291° (WNW) 09:38:59 435.3500 MHz FM
Saudisat 1A 24 Aug 09:39:06 09:43:32 71° 53° (NE) 09:47:55 436.775 MHz
KITSAT 1 24 Aug 09:45:36 09:53:29 51° 47° (NE) 10:01:17 435.175 FM
UOSAT-12 24 Aug 09:47:33 09:51:30 27° 320° (NW) 09:55:30 437.025 FM, 437.400 FM
HO-68 24 Aug 09:57:33 10:04:08 38° 97° (E) 10:10:41 435.675 MHz FM
UKube-1 24 Aug 11:11:01 11:15:23 84° 285° (WNW) 11:19:43 145.840 MHz, 145.915 MHz
Saudisat 1A 24 Aug 11:20:09 11:22:34 15° 250° (WSW) 11:24:58 436.775 MHz
Oscar 11 24 Aug 11:24:46 11:29:10 88° 104° (ESE) 11:33:33 145.825 FM, Beacon 2401.500 USB
FUNcube-1 24 Aug 11:30:32 11:34:46 41° 98° (E) 11:39:03 145.950 - 145.970 MHz USB
RS-15 24 Aug 11:39:14 11:49:53 52° 319° (NW) 12:00:32 29.354 - 29.394 USB, Beacon 29.352 USB
KITSAT 1 24 Aug 11:41:17 11:48:47 44° 249° (WSW) 11:56:15 435.175 FM
HO-68 24 Aug 11:45:12 11:51:57 47° 296° (WNW) 11:58:41 435.675 MHz FM
SO-50 24 Aug 12:17:24 12:17:55 10° 22° (NNE) 12:18:26 436.795 FM
JAS-1B 24 Aug 12:27:43 12:32:51 16° 46° (NE) 12:37:44 435.800 - 435.900 CW/SSB
UKube-1 24 Aug 12:50:19 12:50:51 10° 303° (WNW) 12:51:24 145.840 MHz, 145.915 MHz
Oscar 11 24 Aug 13:03:23 13:04:40 11° 301° (WNW) 13:05:57 145.825 FM, Beacon 2401.500 USB
Oscar 19 24 Aug 13:04:04 13:08:12 25° 63° (ENE) 13:12:21 437.125 CW, 437.150 USB
FUNcube-1 24 Aug 13:07:30 13:10:56 22° 295° (WNW) 13:14:24 145.950 - 145.970 MHz USB
ISS 24 Aug 13:17:40 13:19:59 18° 135° (SE) 13:22:18 145.800 FM
ITAMSAT 1 24 Aug 13:21:16 13:24:34 17° 59° (ENE) 13:27:53 435.822 SSB
Uribyol 2 24 Aug 13:32:20 13:36:15 23° 62° (ENE) 13:40:11 436.500 FM
HO-68 24 Aug 13:36:27 13:37:56 11° 317° (NW) 13:39:25 435.675 MHz FM
Oscar 16 24 Aug 13:36:40 13:41:36 48° 69° (ENE) 13:46:34 437.025 USB, Beacon 2401.1428
Gurwin Techsat 1B 24 Aug 13:38:00 13:39:47 12° 54° (NE) 13:41:33 435.225 FM
AO-27 24 Aug 13:47:02 13:51:25 29° 64° (ENE) 13:55:48 436.795 MHz FM
SO-50 24 Aug 13:55:33 13:59:54 34° 44° (NE) 14:04:19 436.795 FM
RS-15 24 Aug 13:56:33 14:05:31 28° 351° (N) 14:14:34 29.354 - 29.394 USB, Beacon 29.352 USB
JAS-1B 24 Aug 14:12:05 14:21:36 56° 66° (ENE) 14:30:22 435.800 - 435.900 CW/SSB
AO-Echo 24 Aug 14:26:27 14:31:32 64° 73° (ENE) 14:36:28 ?
TMSAT-1 24 Aug 14:31:20 14:35:30 24° 62° (ENE) 14:39:41 436.925 FM
Oscar 19 24 Aug 14:42:19 14:47:16 47° 261° (W) 14:52:16 437.125 CW, 437.150 USB
ISS 24 Aug 14:53:04 14:56:23 73° 332° (NNW) 14:59:43 145.800 FM
UOSAT-12 24 Aug 14:55:01 14:58:09 17° 33° (NNE) 15:01:16 437.025 FM, 437.400 FM
ITAMSAT 1 24 Aug 14:58:20 15:03:30 73° 257° (WSW) 15:08:41 435.822 SSB
MaSat-1 24 Aug 15:03:08 15:07:23 32° 107° (ESE) 15:11:56 437.345 MHz
Uribyol 2 24 Aug 15:10:20 15:15:22 54° 260° (W) 15:20:27 436.500 FM
Gurwin Techsat 1B 24 Aug 15:13:32 15:18:49 72° 73° (ENE) 15:24:07 435.225 FM
Uosat F 24 Aug 15:14:04 15:16:12 13° 56° (NE) 15:18:21 435.120 FM
Oscar 16 24 Aug 15:17:09 15:21:12 23° 267° (W) 15:25:17 437.025 USB, Beacon 2401.1428
